{"data":{"norad_id":62023,"epoch":"2026-09-21T05:30:16.953696Z","epoch_age_seconds":122522,"freshness":"FRESH","line1":"1 62023U 24213R   26264.22936289  .00013006  00000+0  39543-3 0  9992","line2":"2 62023  53.1586 338.3843 0001073  86.1482 273.9643 15.34396709103112","mean_motion":15.34396709,"eccentricity":0.0001073,"inclination_deg":53.1586,"raan_deg":338.3843,"arg_perigee_deg":86.1482,"mean_anomaly_deg":273.9643,"bstar":0.00039543,"rev_number":10311,"period_min":93.847959367593,"perigee_km":461.9789985628,"apogee_km":463.44704497747,"semimajor_km":6840.8500217701,"source":"CELESTRAK","updated_at":"2026-09-22T09:00:49.485191Z"}}